CORVUS BC4

导读

CORVUS BC4是一颗由美国发射的人造卫星,于2018年12月3日8时成功进入太空。作为美国航天发射活动中的一颗卫星,它延续了美国在商业航天领域的探索节奏,依托成熟运载技术入轨,服务于空间技术测试或相关商用空间任务,目前已在轨运行多年,为相关空间应用提供数据支持,是2018年末美国航天发射任务的组成部分。

Basic Information
目录编号:
43767
目录名称:
CORVUS BC4
国际标识:
2018-099K
轨道中心:
EARTH
卫星名称:
CORVUS BC4
卫星全名:
--
卫星状态:
在轨 (已飞行2833 天)
发射日期:
2018-12-03 UTC
国别 :
美国 (US)
星等 :
--
Orbit Information
数据来源 国际轨道数据
星历时间: 2026-09-05T10:12:45+0800
11小时前
查看轨道信息
半长轴: 6905.087km
偏心率: 0.0009917
轨道倾角: 97.401°
近地点辐角 86.364°
升交点赤经 288.734°
平近点角 273.873°
近地点: 520.102km
远地点: 533.798km
周期: 95.173分钟
每日圈数: 15.130355
Detailed Information
使用方式:
暂无
2D Orbit Map
3D Orbit Map
Orbit Altitude Analysis Chart
Orbit Inclination Analysis Chart
Orbit Comprehensive Analysis Chart
View Comprehensive Chart
Conjunction Data List
Event ID Objects TCA Miss Dist (km) Collision Risk Probability Collision Risk Index (CRI) Action
CDM_260906-005503-796804-376723
2026-09-06T
00:55:18+0000
0.858 km
远距离
4.552916E-5 中风险 0.68
CDM_260831-133804-376706-431121
2026-08-31T
13:38:13+0000
1.393 km
极远距离
8.695443E-6 低风险 0.54